This is the latest recevied weather packets stored in our database for station/object K5KHP. If no packets are shown the sender has not sent any weather packets the latest 10 day(s).
| Time | Temp. | Humidity | Pressure | Rain* | Wind** | Luminosity | Snow |
|---|---|---|---|---|---|---|---|
| 1778102473 | 20.56° C | 65% | 1016.9 hPa | 0 mm | - | 631 W/m² | - |
| 1778102168 | 20.56° C | 64% | 1016.7 hPa | 0 mm | - | 599 W/m² | - |
| 1778101866 | 21.11° C | 64% | 1016.8 hPa | 0 mm | - | 593 W/m² | - |
| 1778101562 | 21.11° C | 65% | 1016.7 hPa | 0 mm | - | 610 W/m² | - |
| 1778101259 | 20.56° C | 65% | 1016.8 hPa | 0 mm | - | 632 W/m² | - |
| 1778100956 | 20.56° C | 64% | 1016.9 hPa | 0 mm | - | 623 W/m² | - |
| 1778100650 | 20.56° C | 64% | 1016.8 hPa | 0 mm | - | 609 W/m² | - |
| 1778100349 | 20.56° C | 65% | 1016.9 hPa | 0 mm | - | 607 W/m² | - |
| 1778100046 | 20.56° C | 64% | 1016.7 hPa | 0 mm | - | 635 W/m² | - |
| 1778099744 | 20.56° C | 66% | 1017 hPa | 0 mm | - | 655 W/m² | - |
| 1778099440 | 20.56° C | 66% | 1017 hPa | 0 mm | - | 670 W/m² | - |
| 1778099138 | 20.56° C | 65% | 1017 hPa | 0 mm | - | 686 W/m² | - |
| 1778098834 | 20° C | 67% | 1017 hPa | 0 mm | - | 661 W/m² | - |
| 1778098532 | 20.56° C | 67% | 1017.1 hPa | 0 mm | - | 656 W/m² | - |
| 1778098228 | 20° C | 67% | 1017 hPa | 0 mm | - | 671 W/m² | - |
| 1778097924 | 20° C | 70% | 1017.3 hPa | 0 mm | - | 672 W/m² | - |
| 1778097621 | 20° C | 69% | 1017.3 hPa | 0 mm | - | 667 W/m² | - |
| 1778097318 | 20° C | 70% | 1017.3 hPa | 0 mm | - | 679 W/m² | - |
| 1778097009 | 20° C | 70% | 1017.4 hPa | 0 mm | - | 629 W/m² | - |
| 1778096707 | 20° C | 71% | 1017.3 hPa | 0 mm | - | 595 W/m² | - |
| 1778096403 | 20.56° C | 69% | 1017.3 hPa | 0 mm | - | 597 W/m² | - |
| 1778096101 | 20° C | 71% | 1017.3 hPa | 0 mm | - | 626 W/m² | - |
| 1778095797 | 20.56° C | 69% | 1017.4 hPa | 0 mm | - | 638 W/m² | - |
| 1778095494 | 20° C | 71% | 1017.4 hPa | 0 mm | - | 639 W/m² | - |
| 1778095190 | 20° C | 69% | 1017.4 hPa | 0 mm | - | 650 W/m² | - |
* Rain latest hour (hover to see other rain measurements)
** Current wind speed in m/s (hover to see current wind gust speed)